Palma de Mallorca, Spain

06:58 PM CEST on Oktober 16, 2018 (GMT +0200)
Sa Pobla | | Change Station

Elev 35 ft 39.76 °N, 3.03 °E | Updated 37 seconds ago

Växlande molnighet
Växlande molnighet
67.5 °F
Feels Like 67.5 °F
N
2.3
Vind Växlande Vind from Nordlig
Gusts 2.3 miles/tim

Idag
High -- | Low -- °F
--% Chance of Precip.
Yesterday
High -- | Low -- °F
Precip. -- tum
Lufttryck 29.95 tum
Sikt 6.2 miles
Molnigt Few 1800 ft
Few 2500 ft
Mestadels molnigt 4700 ft
Daggpunkt 59 °F
Luftfuktighet 74%
Rainfall 0.00 tum
Snow Depth Not available.
7:59 AM 7:07 PM
Första kvarteret, 50% visible
METAR LEPA 161630Z 02001G11KT 9999 FEW018 FEW025TCU BKN047 20/18 Q1014 TEMPO 4000 SHRA
Lufttryck 29.95 tum
Sikt 6.2 miles
Molnigt Few 1800 ft
Few 2500 ft
Mestadels molnigt 4700 ft
Daggpunkt 59 °F
Luftfuktighet 74%
Rainfall 0.00 tum
Snow Depth Not available.
7:59 AM 7:07 PM
Första kvarteret, 50% visible
METAR LEPA 161630Z 02001G11KT 9999 FEW018 FEW025TCU BKN047 20/18 Q1014 TEMPO 4000 SHRA

Get Severe Weather Alerts

Thanks for signing up!

Be on the lookout for a verification email in your inbox.

You'll start receiving the daily forecast at 6 AM.

×

10-Day Weather Forecast

×

Almanac

Astronomi

Oct. 16, 2018 Rise Set
Actual Time
Civil Twilight
Nautical Twilight
Astronomical Twilight
Månen
Length Of Visible Light
Dagens längd
Tomorrow will be .
, % of the Moon is Illuminated

Today's Extremes

Country Highs Country Lows

Community

WunderPhotos

Category 6

Welcome to Category 6. This is the collective home for Weather Underground's featured writeups by Dr. Jeff Masters (right), Bob Henson (left), Chris Burt, and other regular contributors.

Nearby

Air Quality

  Air Quality AQ Index Pollutant
Not available.

Snödjup

Station Depth Elevation

Earthquake Activity

Stad Distance Mag. Time & Date
Minimum magnitude displayed is 2.5.

Coastal Water Temperatures

Plats Temperatur

Stations

Nearby Weather Stations

Station Location Temp Vindavkylning Daggpunkt Luftfuktighet Vind Precip. Elev Uppdaterad Type